Regional Weather Roundup
Issued by NWS State College, PA

Home | Current Version | Previous Version | Graphics & Text | Print | Product List | Glossary On
Versions: 1 2 3 4 5 6 7 8 9 10 11 12 13 14 15 16 17 18 19 20 21 22 23 24 25 26 27 28 29 30 31 32 33 34 35 36 37 38 39 40 41 42 43 44 45 46 47 48 49 50
000
ASUS41 KCTP 251310
RWRCTP

REGIONAL WEATHER ROUNDUP
NATIONAL WEATHER SERVICE STATE COLLEGE PA
900 AM EDT SAT OCT 25 2014

Note: "fair" indicates few or no clouds below 12,000 feet with no
significant weather and/or obstructions to visibility.

* = STATION THAT DOES NOT REPORT PRECIPITATION /E.G. RAIN...SNOW...ETC/
    THUNDER OR FOG.

PAZ002>004-007>009-013>016-020>023-029>032-251400-
WESTERN PENNSYLVANIA

CITY           SKY/WX    TMP DP  RH WIND       PRES   REMARKS
ERIE           MOSUNNY   56  45  66 SW10      29.85F
MEADVILLE      PTSUNNY   49  41  74 S9        29.89F
FRANKLIN*      MOSUNNY   46  37  71 SW8       29.92F
NEW CASTLE       N/A     47  41  80 CALM      29.94F
BEAVER COUNTY  CLOUDY    48  41  76 S5        29.95S
BUTLER*        PTSUNNY   48  39  71 SW7       29.96S
PITTSBURGH INT CLOUDY    48  40  73 S5        29.96S
PITTSBURGH     MOSUNNY   49  37  63 S9        29.95F
INDIANA*       PTSUNNY   48  41  76 SW8       29.99S
LATROBE        PTSUNNY   48  43  81 SW17      29.98S
WASHINGTON CO* PTSUNNY   46  39  76 SW6       29.99S
$$

PAZ004>006-010>012-017>019-024>028-033>037-041-042-045-046-049>053-251400-
CENTRAL PENNSYLVANIA

CITY           SKY/WX    TMP DP  RH WIND       PRES   REMARKS
BRADFORD       CLOUDY    47  39  74 SW6       29.89S
DUBOIS         PTSUNNY   46  40  79 SW10      29.91F
CLEARFIELD     CLOUDY    45  40  82 S9        29.92F
JOHNSTOWN      PTSUNNY   49  36  61 W14       29.94S
ALTOONA        SUNNY     49  41  74 S10       29.94F
STATE COLLEGE  CLOUDY    48  41  76 SW6       29.92F
WILLIAMSPORT   MOSUNNY   45  36  70 CALM      29.91S
SELINSGROVE    CLOUDY    43  41  93 CALM      29.92F
FT INDIANTOWN  SUNNY     50  43  77 SW6       29.92S
CAPITAL CITY   SUNNY     51  40  65 W9        29.94R
HARRISBURG     MOSUNNY   50  44  80 CALM      29.93R
YORK           SUNNY     54  42  64 W6        29.94R
$$

PAZ038>040-043-044-047-048-054-055-060>062-067>071-251400-
EASTERN PENNSYLVANIA

CITY           SKY/WX    TMP DP  RH WIND       PRES   REMARKS
SCRANTON       SUNNY     45  35  68 CALM      29.88F
MOUNT POCONO   SUNNY     46  33  60 NW12      29.86F
ALLENTOWN      SUNNY     48  37  65 SW3       29.90F
QUAKERTOWN*    SUNNY     46  37  71 CALM      29.91S
READING        SUNNY     50  42  74 CALM      29.91S
LANCASTER      SUNNY     48  41  76 W5        29.93R
COATESVILLE    SUNNY     50  41  71 W6        29.92S
POTTSTOWN      SUNNY     49  40  71 CALM      29.92F
BLUE BELL      SUNNY     52  41  66 CALM      29.90F
DOYLESTOWN     SUNNY     47  36  65 S3        29.89F
WILLOW GROVE   NOT AVBL
NORTH PHILA    SUNNY     55  37  50 W5        29.92F
PHILADELPHIA   SUNNY     53  39  59 W5        29.92F
$$



USA.gov is the U.S. government's official web portal to all federal, state and local government web resources and services.